Time,TemperatureF,DewpointF,PressureIn,WindDirection,WindDirectionDegrees,WindSpeedMPH,WindSpeedGustMPH,Humidity,HourlyPrecipIn,Conditions,Clouds,dailyrainin,SoftwareType,DateUTC
2013-01-04 00:00:00,9.7,-13.1,29.99,WNW,292,0.0,0.0,34,0.00,CLR,,0.00,WeatherDisplay:10.37,2013-01-04 05:00:00,
2013-01-04 00:02:00,9.0,-13.8,29.99,WNW,292,0.0,0.0,34,0.00,CLR,,0.00,WeatherDisplay:10.37,2013-01-04 05:02:00,
2013-01-04 00:03:00,9.0,-13.8,29.99,WNW,292,0.0,0.0,34,0.00,CLR,,0.00,WeatherDisplay:10.37,2013-01-04 05:03:00,
2013-01-04 00:08:00,8.8,-13.9,29.99,WNW,292,0.0,0.0,34,0.00,CLR,,0.00,WeatherDisplay:10.37,2013-01-04 05:08:00,
2013-01-04 00:13:00,8.8,-13.9,29.99,WNW,292,0.0,0.0,34,0.00,CLR,,0.00,WeatherDisplay:10.37,2013-01-04 05:13:00,
2013-01-04 00:18:00,8.8,-13.9,29.99,WNW,292,0.0,0.0,34,0.00,CLR,,0.00,WeatherDisplay:10.37,2013-01-04 05:18:00,
2013-01-04 00:23:00,9.0,-13.8,29.99,WNW,292,0.0,0.0,34,0.00,CLR,,0.00,WeatherDisplay:10.37,2013-01-04 05:23:00,
2013-01-04 00:28:00,9.0,-13.8,29.96,WNW,292,0.0,0.0,34,0.00,CLR,,0.00,WeatherDisplay:10.37,2013-01-04 05:28:00,
2013-01-04 00:33:00,8.6,-14.1,29.96,WNW,292,0.0,0.0,34,0.00,CLR,,0.00,WeatherDisplay:10.37,2013-01-04 05:33:00,
2013-01-04 00:38:00,8.8,-13.9,29.96,WNW,292,0.0,0.0,34,0.00,CLR,,0.00,WeatherDisplay:10.37,2013-01-04 05:38:00,
2013-01-04 00:43:00,8.8,-13.9,29.96,WNW,292,0.0,0.0,34,0.00,CLR,,0.00,WeatherDisplay:10.37,2013-01-04 05:43:00,
2013-01-04 00:48:00,8.8,-13.9,29.96,WNW,292,0.0,0.0,34,0.00,CLR,,0.00,WeatherDisplay:10.37,2013-01-04 05:48:00,
2013-01-04 00:53:00,8.8,-13.9,29.96,WNW,292,0.0,0.0,34,0.00,CLR,,0.00,WeatherDisplay:10.37,2013-01-04 05:53:00,
2013-01-04 00:58:00,8.6,-14.1,29.96,WNW,292,0.0,0.0,34,0.00,CLR,,0.00,WeatherDisplay:10.37,2013-01-04 05:58:00,
2013-01-04 01:03:00,8.4,-14.3,29.96,WNW,292,0.0,0.0,34,0.00,CLR,,0.00,WeatherDisplay:10.37,2013-01-04 06:03:00,
2013-01-04 01:08:00,8.4,-14.3,29.96,WNW,292,0.0,0.0,34,0.00,CLR,,0.00,WeatherDisplay:10.37,2013-01-04 06:08:00,
2013-01-04 01:13:00,8.4,-14.3,29.96,WNW,292,0.0,0.0,34,0.00,CLR,,0.00,WeatherDisplay:10.37,2013-01-04 06:13:00,
2013-01-04 01:18:00,8.2,-14.4,29.96,WNW,292,0.0,0.0,34,0.00,CLR,,0.00,WeatherDisplay:10.37,2013-01-04 06:18:00,
2013-01-04 01:23:00,8.2,-14.4,29.96,WNW,292,0.0,0.0,34,0.00,CLR,,0.00,WeatherDisplay:10.37,2013-01-04 06:23:00,
2013-01-04 01:28:00,8.2,-14.4,29.96,WNW,292,0.0,0.0,34,0.00,CLR,,0.00,WeatherDisplay:10.37,2013-01-04 06:28:00,
2013-01-04 01:33:00,8.4,-14.3,29.96,WNW,292,0.0,0.0,34,0.00,CLR,,0.00,WeatherDisplay:10.37,2013-01-04 06:33:00,
2013-01-04 01:38:00,8.4,-14.3,29.96,WNW,292,0.0,0.0,34,0.00,CLR,,0.00,WeatherDisplay:10.37,2013-01-04 06:38:00,
2013-01-04 01:43:00,8.6,-14.1,29.96,WNW,292,0.0,0.0,34,0.00,CLR,,0.00,WeatherDisplay:10.37,2013-01-04 06:43:00,
2013-01-04 01:48:00,8.6,-14.1,29.96,WNW,292,0.0,0.0,34,0.00,CLR,,0.00,WeatherDisplay:10.37,2013-01-04 06:48:00,
2013-01-04 01:53:00,8.6,-14.1,29.96,WNW,292,0.0,0.0,34,0.00,CLR,,0.00,WeatherDisplay:10.37,2013-01-04 06:53:00,
2013-01-04 01:58:00,8.8,-13.9,29.96,WNW,292,0.0,0.0,34,0.00,CLR,,0.00,WeatherDisplay:10.37,2013-01-04 06:58:00,
2013-01-04 02:03:00,8.8,-13.9,29.96,WNW,292,0.0,0.0,34,0.00,CLR,,0.00,WeatherDisplay:10.37,2013-01-04 07:03:00,
2013-01-04 02:08:00,8.8,-13.9,29.96,WNW,292,0.0,0.0,34,0.00,CLR,,0.00,WeatherDisplay:10.37,2013-01-04 07:08:00,
2013-01-04 02:13:00,8.8,-13.9,29.96,WNW,292,0.0,0.0,34,0.00,CLR,,0.00,WeatherDisplay:10.37,2013-01-04 07:13:00,
2013-01-04 02:18:00,8.8,-13.9,29.96,WNW,292,0.0,0.0,34,0.00,CLR,,0.00,WeatherDisplay:10.37,2013-01-04 07:18:00,
2013-01-04 02:23:00,8.8,-13.9,29.96,WNW,292,0.0,0.0,34,0.00,CLR,,0.00,WeatherDisplay:10.37,2013-01-04 07:23:00,
2013-01-04 02:28:00,8.8,-13.9,29.96,WNW,292,0.0,0.0,34,0.00,CLR,,0.00,WeatherDisplay:10.37,2013-01-04 07:28:00,
2013-01-04 02:33:00,8.8,-13.9,29.96,WNW,292,0.0,0.0,34,0.00,CLR,,0.00,WeatherDisplay:10.37,2013-01-04 07:33:00,
2013-01-04 02:38:00,9.1,-13.6,29.96,WNW,292,0.0,0.0,34,0.00,CLR,,0.00,WeatherDisplay:10.37,2013-01-04 07:38:00,
2013-01-04 02:43:00,9.7,-13.1,29.96,WNW,292,0.0,0.0,34,0.00,CLR,,0.00,WeatherDisplay:10.37,2013-01-04 07:43:00,
2013-01-04 02:48:00,9.9,-13.0,29.96,WNW,292,0.0,0.0,34,0.00,CLR,,0.00,WeatherDisplay:10.37,2013-01-04 07:48:00,
2013-01-04 02:53:00,10.0,-12.8,29.96,WNW,292,0.0,0.0,34,0.00,CLR,,0.00,WeatherDisplay:10.37,2013-01-04 07:53:00,
2013-01-04 02:58:00,10.0,-12.8,29.96,WNW,292,0.0,0.0,34,0.00,CLR,,0.00,WeatherDisplay:10.37,2013-01-04 07:58:00,
2013-01-04 03:03:00,9.5,-13.3,29.96,WNW,292,0.0,0.0,34,0.00,CLR,,0.00,WeatherDisplay:10.37,2013-01-04 08:03:00,
2013-01-04 03:08:00,9.1,-13.6,29.96,WNW,292,0.0,0.0,34,0.00,CLR,,0.00,WeatherDisplay:10.37,2013-01-04 08:08:00,
2013-01-04 03:13:00,9.3,-13.4,29.96,WNW,292,0.0,0.0,34,0.00,CLR,,0.00,WeatherDisplay:10.37,2013-01-04 08:13:00,
2013-01-04 03:18:00,9.1,-13.6,29.96,WNW,292,0.0,0.0,34,0.00,CLR,,0.00,WeatherDisplay:10.37,2013-01-04 08:18:00,
2013-01-04 03:23:00,9.0,-13.8,29.96,WNW,292,0.0,0.0,34,0.00,CLR,,0.00,WeatherDisplay:10.37,2013-01-04 08:23:00,
2013-01-04 03:28:00,8.8,-13.9,29.96,WNW,292,0.0,0.0,34,0.00,CLR,,0.00,WeatherDisplay:10.37,2013-01-04 08:28:00,
2013-01-04 03:33:00,8.8,-13.9,29.96,WNW,292,0.0,0.0,34,0.00,CLR,,0.00,WeatherDisplay:10.37,2013-01-04 08:33:00,
2013-01-04 03:38:00,8.8,-13.9,29.93,WNW,292,0.0,0.0,34,0.00,CLR,,0.00,WeatherDisplay:10.37,2013-01-04 08:38:00,
2013-01-04 03:43:00,8.8,-13.9,29.93,WNW,292,0.0,0.0,34,0.00,CLR,,0.00,WeatherDisplay:10.37,2013-01-04 08:43:00,
2013-01-04 03:48:00,8.6,-14.1,29.93,WNW,292,0.0,0.0,34,0.00,CLR,,0.00,WeatherDisplay:10.37,2013-01-04 08:48:00,
2013-01-04 03:53:00,8.6,-14.1,29.93,WNW,292,0.0,0.0,34,0.00,CLR,,0.00,WeatherDisplay:10.37,2013-01-04 08:53:00,
2013-01-04 03:58:00,8.4,-14.3,29.93,WNW,292,0.0,0.0,34,0.00,CLR,,0.00,WeatherDisplay:10.37,2013-01-04 08:58:00,
2013-01-04 04:03:00,8.4,-14.3,29.93,WNW,292,0.0,0.0,34,0.00,CLR,,0.00,WeatherDisplay:10.37,2013-01-04 09:03:00,
2013-01-04 04:08:00,8.1,-14.6,29.93,WNW,292,0.0,0.0,34,0.00,CLR,,0.00,WeatherDisplay:10.37,2013-01-04 09:08:00,
2013-01-04 04:13:00,8.2,-14.4,29.93,WNW,292,0.0,0.0,34,0.00,CLR,,0.00,WeatherDisplay:10.37,2013-01-04 09:13:00,
2013-01-04 04:18:00,8.2,-14.4,29.93,WNW,292,0.0,0.0,34,0.00,CLR,,0.00,WeatherDisplay:10.37,2013-01-04 09:18:00,
2013-01-04 04:23:00,8.2,-14.4,29.93,WNW,292,0.0,0.0,34,0.00,CLR,,0.00,WeatherDisplay:10.37,2013-01-04 09:23:00,
2013-01-04 04:28:00,8.4,-14.3,29.93,WNW,292,0.0,0.0,34,0.00,CLR,,0.00,WeatherDisplay:10.37,2013-01-04 09:28:00,
2013-01-04 04:33:00,8.6,-14.1,29.93,WNW,292,0.0,0.0,34,0.00,CLR,,0.00,WeatherDisplay:10.37,2013-01-04 09:33:00,
2013-01-04 04:38:00,8.4,-14.3,29.93,WNW,292,0.0,0.0,34,0.00,CLR,,0.00,WeatherDisplay:10.37,2013-01-04 09:38:00,
2013-01-04 04:43:00,8.4,-14.3,29.93,WNW,292,0.0,0.0,34,0.00,CLR,,0.00,WeatherDisplay:10.37,2013-01-04 09:43:00,
2013-01-04 04:48:00,8.4,-14.3,29.93,WNW,292,0.0,0.0,34,0.00,CLR,,0.00,WeatherDisplay:10.37,2013-01-04 09:48:00,
2013-01-04 04:53:00,8.2,-14.4,29.93,WNW,292,0.0,0.0,34,0.00,CLR,,0.00,WeatherDisplay:10.37,2013-01-04 09:53:00,
2013-01-04 04:58:00,8.2,-14.4,29.93,WNW,292,0.0,0.0,34,0.00,CLR,,0.00,WeatherDisplay:10.37,2013-01-04 09:58:00,
2013-01-04 05:03:00,7.9,-14.7,29.93,WNW,292,0.0,0.0,34,0.00,CLR,,0.00,WeatherDisplay:10.37,2013-01-04 10:03:00,
2013-01-04 05:08:00,7.9,-14.7,29.93,WNW,292,0.0,0.0,34,0.00,CLR,,0.00,WeatherDisplay:10.37,2013-01-04 10:08:00,
2013-01-04 05:13:00,7.9,-14.7,29.93,WNW,292,0.0,0.0,34,0.00,CLR,,0.00,WeatherDisplay:10.37,2013-01-04 10:13:00,
2013-01-04 05:18:00,8.1,-14.6,29.93,WNW,292,0.0,0.0,34,0.00,CLR,,0.00,WeatherDisplay:10.37,2013-01-04 10:18:00,
2013-01-04 05:23:00,7.9,-14.7,29.93,WNW,292,0.0,0.0,34,0.00,CLR,,0.00,WeatherDisplay:10.37,2013-01-04 10:23:00,
2013-01-04 05:28:00,7.9,-14.7,29.93,WNW,292,0.0,0.0,34,0.00,CLR,,0.00,WeatherDisplay:10.37,2013-01-04 10:28:00,
2013-01-04 05:33:00,7.9,-14.7,29.93,WNW,292,0.0,0.0,34,0.00,CLR,,0.00,WeatherDisplay:10.37,2013-01-04 10:33:00,
2013-01-04 05:38:00,7.7,-14.9,29.93,WNW,292,0.0,0.0,34,0.00,CLR,,0.00,WeatherDisplay:10.37,2013-01-04 10:38:00,
2013-01-04 05:43:00,7.7,-14.9,29.93,WNW,292,0.0,0.0,34,0.00,CLR,,0.00,WeatherDisplay:10.37,2013-01-04 10:43:00,
2013-01-04 05:48:00,7.7,-14.9,29.93,WNW,292,0.0,0.0,34,0.00,CLR,,0.00,WeatherDisplay:10.37,2013-01-04 10:48:00,
2013-01-04 05:53:00,8.1,-14.6,29.93,WNW,292,0.0,0.0,34,0.00,CLR,,0.00,WeatherDisplay:10.37,2013-01-04 10:53:00,
2013-01-04 05:58:00,8.1,-14.6,29.93,WNW,292,0.0,0.0,34,0.00,CLR,,0.00,WeatherDisplay:10.37,2013-01-04 10:58:00,
2013-01-04 06:03:00,8.1,-14.6,29.93,WNW,292,0.0,0.0,34,0.00,CLR,,0.00,WeatherDisplay:10.37,2013-01-04 11:03:00,
2013-01-04 06:08:00,8.1,-14.6,29.93,WNW,292,0.0,0.0,34,0.00,CLR,,0.00,WeatherDisplay:10.37,2013-01-04 11:08:00,
2013-01-04 06:13:00,8.1,-14.6,29.93,WNW,292,0.0,0.0,34,0.00,CLR,,0.00,WeatherDisplay:10.37,2013-01-04 11:13:00,
2013-01-04 06:18:00,8.1,-14.6,29.93,WNW,292,0.0,0.0,34,0.00,CLR,,0.00,WeatherDisplay:10.37,2013-01-04 11:18:00,
2013-01-04 06:23:00,8.4,-14.3,29.93,WNW,292,0.0,0.0,34,0.00,CLR,,0.00,WeatherDisplay:10.37,2013-01-04 11:23:00,
2013-01-04 06:28:00,8.6,-14.1,29.93,WNW,292,0.0,0.0,34,0.00,CLR,,0.00,WeatherDisplay:10.37,2013-01-04 11:28:00,
2013-01-04 06:33:00,8.6,-14.1,29.93,WNW,292,0.0,0.0,34,0.00,CLR,,0.00,WeatherDisplay:10.37,2013-01-04 11:33:00,
2013-01-04 06:38:00,8.6,-14.1,29.93,WNW,292,0.0,0.0,34,0.00,CLR,,0.00,WeatherDisplay:10.37,2013-01-04 11:38:00,
2013-01-04 06:43:00,8.8,-13.9,29.93,WNW,292,0.0,0.0,34,0.00,CLR,,0.00,WeatherDisplay:10.37,2013-01-04 11:43:00,
2013-01-04 06:48:00,8.8,-13.9,29.93,WNW,292,0.0,0.0,34,0.00,CLR,,0.00,WeatherDisplay:10.37,2013-01-04 11:48:00,
2013-01-04 06:53:00,8.8,-13.9,29.93,WNW,292,0.0,0.0,34,0.00,CLR,,0.00,WeatherDisplay:10.37,2013-01-04 11:53:00,
2013-01-04 06:58:00,9.3,-13.4,29.93,WNW,292,0.0,0.0,34,0.00,CLR,,0.00,WeatherDisplay:10.37,2013-01-04 11:58:00,
2013-01-04 07:03:00,9.3,-13.4,29.93,WNW,292,0.0,0.0,34,0.00,CLR,,0.00,WeatherDisplay:10.37,2013-01-04 12:03:00,
2013-01-04 07:08:00,9.9,-13.0,29.93,WNW,292,0.0,0.0,34,0.00,CLR,,0.00,WeatherDisplay:10.37,2013-01-04 12:08:00,
2013-01-04 07:13:00,10.0,-12.8,29.93,WNW,292,0.0,0.0,34,0.00,CLR,,0.00,WeatherDisplay:10.37,2013-01-04 12:13:00,
2013-01-04 07:18:00,10.0,-12.8,29.93,WNW,292,0.0,0.0,34,0.00,CLR,,0.00,WeatherDisplay:10.37,2013-01-04 12:18:00,
2013-01-04 07:23:00,10.4,-12.5,29.93,WNW,292,0.0,0.0,34,0.00,CLR,,0.00,WeatherDisplay:10.37,2013-01-04 12:23:00,
2013-01-04 07:28:00,10.4,-12.5,29.93,WNW,292,0.0,0.0,34,0.00,CLR,,0.00,WeatherDisplay:10.37,2013-01-04 12:28:00,
2013-01-04 07:33:00,10.4,-12.5,29.93,WNW,292,0.0,0.0,34,0.00,CLR,,0.00,WeatherDisplay:10.37,2013-01-04 12:33:00,
2013-01-04 07:38:00,10.4,-12.5,29.93,WNW,292,0.0,0.0,34,0.00,CLR,,0.00,WeatherDisplay:10.37,2013-01-04 12:38:00,
2013-01-04 07:43:00,10.4,-12.5,29.93,WNW,292,0.0,0.0,34,0.00,CLR,,0.00,WeatherDisplay:10.37,2013-01-04 12:43:00,
2013-01-04 07:48:00,12.6,-10.6,29.93,WNW,292,0.0,0.0,34,0.00,CLR,,0.00,WeatherDisplay:10.37,2013-01-04 12:48:00,
2013-01-04 07:53:00,12.9,-10.2,29.93,WNW,298,0.0,0.0,34,0.00,CLR,,0.00,WeatherDisplay:10.37,2013-01-04 12:53:00,
2013-01-04 07:58:00,13.8,-9.4,29.93,NNE,23,4.6,0.0,34,0.00,CLR,,0.00,WeatherDisplay:10.37,2013-01-04 12:58:00,
2013-01-04 08:03:00,14.4,-5.1,29.93,NNW,328,0.0,2.2,41,0.00,CLR,,0.00,WeatherDisplay:10.37,2013-01-04 13:03:00,
2013-01-04 08:08:00,15.4,-4.1,29.93,WNW,292,2.3,0.0,41,0.00,CLR,,0.00,WeatherDisplay:10.37,2013-01-04 13:08:00,
2013-01-04 08:13:00,16.7,-3.0,29.93,NW,306,2.3,0.0,41,0.00,CLR,,0.00,WeatherDisplay:10.37,2013-01-04 13:13:00,
2013-01-04 08:18:00,19.0,0.7,29.93,WNW,299,2.3,2.3,44,0.00,CLR,,0.00,WeatherDisplay:10.37,2013-01-04 13:18:00,
2013-01-04 08:23:00,19.0,0.7,29.93,NW,320,2.3,2.3,44,0.00,CLR,,0.00,WeatherDisplay:10.37,2013-01-04 13:23:00,
2013-01-04 08:28:00,24.4,-1.3,29.93,SW,217,4.6,4.6,32,0.00,CLR,,0.00,WeatherDisplay:10.37,2013-01-04 13:28:00,
2013-01-04 08:33:00,25.2,-1.3,29.93,SSW,211,0.0,2.7,31,0.00,CLR,,0.00,WeatherDisplay:10.37,2013-01-04 13:33:00,
2013-01-04 08:38:00,25.2,-1.3,29.93,WSW,254,3.5,3.5,31,0.00,CLR,,0.00,WeatherDisplay:10.37,2013-01-04 13:38:00,
2013-01-04 08:43:00,25.2,-1.3,29.93,WNW,292,2.3,0.0,31,0.00,CLR,,0.00,WeatherDisplay:10.37,2013-01-04 13:43:00,
2013-01-04 08:48:00,26.4,1.8,29.93,WSW,238,2.3,0.0,34,0.00,CLR,,0.00,WeatherDisplay:10.37,2013-01-04 13:48:00,
2013-01-04 08:53:00,26.8,0.1,29.93,West,263,3.5,0.0,31,0.00,CLR,,0.00,WeatherDisplay:10.37,2013-01-04 13:53:00,
2013-01-04 08:58:00,26.6,0.0,29.93,WSW,250,0.0,3.1,31,0.00,CLR,,0.00,WeatherDisplay:10.37,2013-01-04 13:58:00,
2013-01-04 09:03:00,27.1,0.4,29.93,WNW,284,2.3,2.3,31,0.00,CLR,,0.00,WeatherDisplay:10.37,2013-01-04 14:03:00,
2013-01-04 09:08:00,27.3,0.6,29.93,WNW,288,3.5,3.5,31,0.00,CLR,,0.00,WeatherDisplay:10.37,2013-01-04 14:08:00,
2013-01-04 09:13:00,27.3,0.6,29.93,South,184,2.3,2.3,31,0.00,CLR,,0.00,WeatherDisplay:10.37,2013-01-04 14:13:00,
2013-01-04 09:18:00,27.9,1.1,29.93,WSW,253,0.0,0.0,31,0.00,CLR,,0.00,WeatherDisplay:10.37,2013-01-04 14:18:00,
2013-01-04 09:23:00,28.0,1.2,29.93,WSW,254,0.0,0.0,31,0.00,CLR,,0.00,WeatherDisplay:10.37,2013-01-04 14:23:00,
2013-01-04 09:28:00,28.0,1.2,29.93,ENE,73,0.0,0.0,31,0.00,CLR,,0.00,WeatherDisplay:10.37,2013-01-04 14:28:00,
2013-01-04 09:33:00,28.0,1.2,29.93,West,264,2.3,0.0,31,0.00,CLR,,0.00,WeatherDisplay:10.37,2013-01-04 14:33:00,
2013-01-04 09:38:00,28.0,1.2,29.93,SW,234,0.0,0.0,31,0.00,CLR,,0.00,WeatherDisplay:10.37,2013-01-04 14:38:00,
2013-01-04 09:43:00,28.6,1.0,29.93,SW,221,0.0,0.0,30,0.00,CLR,,0.00,WeatherDisplay:10.37,2013-01-04 14:43:00,
2013-01-04 09:48:00,28.6,1.0,29.93,West,281,4.6,4.6,30,0.00,CLR,,0.00,WeatherDisplay:10.37,2013-01-04 14:48:00,
2013-01-04 09:53:00,29.3,1.6,29.93,WSW,245,2.3,0.0,30,0.00,CLR,,0.00,WeatherDisplay:10.37,2013-01-04 14:53:00,
2013-01-04 09:58:00,29.5,1.8,29.93,SSW,211,0.0,0.0,30,0.00,CLR,,0.00,WeatherDisplay:10.37,2013-01-04 14:58:00,
2013-01-04 10:03:00,29.7,2.0,29.93,WSW,241,2.3,0.0,30,0.00,CLR,,0.00,WeatherDisplay:10.37,2013-01-04 15:03:00,
2013-01-04 10:08:00,30.2,2.4,29.93,SW,220,3.5,3.6,30,0.00,CLR,,0.00,WeatherDisplay:10.37,2013-01-04 15:08:00,
2013-01-04 10:13:00,30.4,2.6,29.90,ENE,64,3.5,0.0,30,0.00,CLR,,0.00,WeatherDisplay:10.37,2013-01-04 15:13:00,
2013-01-04 10:18:00,30.4,2.6,29.90,South,181,5.8,5.8,30,0.00,CLR,,0.00,WeatherDisplay:10.37,2013-01-04 15:18:00,
2013-01-04 10:23:00,30.7,2.9,29.90,SSW,207,3.5,3.5,30,0.00,CLR,,0.00,WeatherDisplay:10.37,2013-01-04 15:23:00,
2013-01-04 10:28:00,30.9,3.1,29.90,WNW,294,3.5,3.5,30,0.00,CLR,,0.00,WeatherDisplay:10.37,2013-01-04 15:28:00,
2013-01-04 10:33:00,31.1,3.2,29.90,SW,236,3.5,0.0,30,0.00,CLR,,0.00,WeatherDisplay:10.37,2013-01-04 15:33:00,
2013-01-04 10:38:00,31.5,3.5,29.90,SW,220,2.3,0.0,30,0.00,CLR,,0.00,WeatherDisplay:10.37,2013-01-04 15:38:00,
2013-01-04 10:43:00,31.6,3.7,29.90,WSW,239,2.3,0.0,30,0.00,CLR,,0.00,WeatherDisplay:10.37,2013-01-04 15:43:00,
2013-01-04 10:48:00,31.6,3.7,29.90,WSW,252,2.3,0.0,30,0.00,CLR,,0.00,WeatherDisplay:10.37,2013-01-04 15:48:00,
2013-01-04 10:53:00,31.6,3.7,29.90,WSW,241,5.8,5.8,30,0.00,CLR,,0.00,WeatherDisplay:10.37,2013-01-04 15:53:00,
2013-01-04 10:58:00,32.2,4.2,29.90,NNW,329,3.5,3.5,30,0.00,CLR,,0.00,WeatherDisplay:10.37,2013-01-04 15:58:00,
2013-01-04 11:03:00,32.2,4.2,29.90,West,279,0.0,3.1,30,0.00,CLR,,0.00,WeatherDisplay:10.37,2013-01-04 16:03:00,
2013-01-04 11:08:00,32.2,4.2,29.90,East,82,5.8,5.8,30,0.00,CLR,,0.00,WeatherDisplay:10.37,2013-01-04 16:08:00,
2013-01-04 11:13:00,33.8,5.6,29.90,SW,214,2.3,0.0,30,0.00,CLR,,0.00,WeatherDisplay:10.37,2013-01-04 16:13:00,
2013-01-04 11:18:00,33.8,5.6,29.87,West,280,0.0,0.0,30,0.00,CLR,,0.00,WeatherDisplay:10.37,2013-01-04 16:18:00,
2013-01-04 11:23:00,33.6,5.4,29.87,SSW,211,3.5,3.5,30,0.00,CLR,,0.00,WeatherDisplay:10.37,2013-01-04 16:23:00,
2013-01-04 11:28:00,34.0,5.7,29.87,SW,225,3.5,3.5,30,0.00,CLR,,0.00,WeatherDisplay:10.37,2013-01-04 16:28:00,
2013-01-04 11:33:00,34.0,5.7,29.87,SSW,212,2.3,0.0,30,0.00,CLR,,0.00,WeatherDisplay:10.37,2013-01-04 16:33:00,
2013-01-04 11:38:00,33.8,5.6,29.87,WNW,298,3.5,4.0,30,0.00,CLR,,0.00,WeatherDisplay:10.37,2013-01-04 16:38:00,
2013-01-04 11:43:00,33.8,5.6,29.87,SW,228,3.5,3.5,30,0.00,CLR,,0.00,WeatherDisplay:10.37,2013-01-04 16:43:00,
2013-01-04 11:48:00,33.6,5.4,29.84,NNE,28,5.8,5.8,30,0.00,CLR,,0.00,WeatherDisplay:10.37,2013-01-04 16:48:00,
2013-01-04 11:53:00,34.2,5.9,29.84,South,189,3.5,3.5,30,0.00,CLR,,0.00,WeatherDisplay:10.37,2013-01-04 16:53:00,
2013-01-04 11:58:00,34.2,5.9,29.84,WSW,255,3.5,3.5,30,0.00,CLR,,0.00,WeatherDisplay:10.37,2013-01-04 16:58:00,
2013-01-04 12:03:00,34.5,6.2,29.84,SW,228,3.5,0.0,30,0.00,CLR,,0.00,WeatherDisplay:10.37,2013-01-04 17:03:00,
2013-01-04 12:08:00,34.5,6.2,29.84,WSW,253,3.5,3.5,30,0.00,CLR,,0.00,WeatherDisplay:10.37,2013-01-04 17:08:00,
2013-01-04 12:13:00,34.5,6.2,29.84,NE,44,3.5,3.5,30,0.00,CLR,,0.00,WeatherDisplay:10.37,2013-01-04 17:13:00,
2013-01-04 12:18:00,34.9,6.5,29.84,WSW,255,3.6,0.0,30,0.00,CLR,,0.00,WeatherDisplay:10.37,2013-01-04 17:18:00,
2013-01-04 12:23:00,35.6,6.4,29.84,WNW,286,3.5,3.5,29,0.00,CLR,,0.00,WeatherDisplay:10.37,2013-01-04 17:23:00,
2013-01-04 12:28:00,36.1,6.9,29.81,SW,233,2.3,2.3,29,0.00,CLR,,0.00,WeatherDisplay:10.37,2013-01-04 17:28:00,
2013-01-04 12:34:00,36.0,6.7,29.81,SW,222,3.5,3.5,29,0.00,CLR,,0.00,WeatherDisplay:10.37,2013-01-04 17:34:00,
2013-01-04 12:39:00,36.0,6.7,29.81,WSW,237,2.3,2.3,29,0.00,CLR,,0.00,WeatherDisplay:10.37,2013-01-04 17:39:00,
2013-01-04 12:44:00,37.6,8.1,29.81,NNW,340,3.5,3.5,29,0.00,CLR,,0.00,WeatherDisplay:10.37,2013-01-04 17:44:00,
2013-01-04 12:49:00,37.6,8.1,29.81,WSW,247,3.5,3.5,29,0.00,CLR,,0.00,WeatherDisplay:10.37,2013-01-04 17:49:00,
2013-01-04 12:54:00,36.7,7.4,29.81,SSW,211,2.3,2.3,29,0.00,CLR,,0.00,WeatherDisplay:10.37,2013-01-04 17:54:00,
2013-01-04 12:59:00,37.2,7.8,29.81,West,266,2.3,2.3,29,0.00,CLR,,0.00,WeatherDisplay:10.37,2013-01-04 17:59:00,
2013-01-04 13:04:00,37.2,7.8,29.81,WSW,245,3.5,3.5,29,0.00,CLR,,0.00,WeatherDisplay:10.37,2013-01-04 18:04:00,
2013-01-04 13:09:00,36.9,7.5,29.81,NNW,345,3.5,0.0,29,0.00,CLR,,0.00,WeatherDisplay:10.37,2013-01-04 18:09:00,
2013-01-04 13:14:00,36.9,7.5,29.81,West,272,3.5,3.6,29,0.00,CLR,,0.00,WeatherDisplay:10.37,2013-01-04 18:14:00,
2013-01-04 13:19:00,37.6,8.1,29.78,SW,228,3.5,4.0,29,0.00,CLR,,0.00,WeatherDisplay:10.37,2013-01-04 18:19:00,
2013-01-04 13:24:00,37.4,8.0,29.78,WSW,240,2.3,3.1,29,0.00,CLR,,0.00,WeatherDisplay:10.37,2013-01-04 18:24:00,
2013-01-04 13:29:00,37.6,8.1,29.78,West,272,4.6,4.6,29,0.00,CLR,,0.00,WeatherDisplay:10.37,2013-01-04 18:29:00,
2013-01-04 13:34:00,37.0,7.7,29.78,NNE,22,4.6,4.6,29,0.00,CLR,,0.00,WeatherDisplay:10.37,2013-01-04 18:34:00,
2013-01-04 13:39:00,37.0,7.7,29.78,SW,221,8.1,8.1,29,0.00,CLR,,0.00,WeatherDisplay:10.37,2013-01-04 18:39:00,
2013-01-04 13:44:00,36.3,7.0,29.78,NW,325,5.8,5.8,29,0.00,CLR,,0.00,WeatherDisplay:10.37,2013-01-04 18:44:00,
2013-01-04 13:49:00,36.3,7.0,29.78,West,273,9.2,9.2,29,0.00,CLR,,0.00,WeatherDisplay:10.37,2013-01-04 18:49:00,
2013-01-04 13:54:00,36.3,7.0,29.78,North,5,2.3,4.0,29,0.00,CLR,,0.00,WeatherDisplay:10.37,2013-01-04 18:54:00,
2013-01-04 13:59:00,36.3,7.0,29.78,WNW,292,3.5,3.6,29,0.00,CLR,,0.00,WeatherDisplay:10.37,2013-01-04 18:59:00,
2013-01-04 14:04:00,36.3,7.0,29.78,WSW,254,3.5,3.6,29,0.00,CLR,,0.00,WeatherDisplay:10.37,2013-01-04 19:04:00,
2013-01-04 14:09:00,36.3,7.0,29.78,West,272,3.5,3.5,29,0.00,CLR,,0.00,WeatherDisplay:10.37,2013-01-04 19:09:00,
2013-01-04 14:14:00,36.3,7.0,29.78,West,260,8.1,8.1,29,0.00,CLR,,0.00,WeatherDisplay:10.37,2013-01-04 19:14:00,
2013-01-04 14:19:00,36.5,7.2,29.78,WNW,286,3.5,3.5,29,0.00,CLR,,0.00,WeatherDisplay:10.37,2013-01-04 19:19:00,
2013-01-04 14:24:00,36.5,7.2,29.78,West,268,4.6,4.6,29,0.00,CLR,,0.00,WeatherDisplay:10.37,2013-01-04 19:24:00,
2013-01-04 14:29:00,36.5,7.2,29.78,NNE,20,3.5,4.0,29,0.00,CLR,,0.00,WeatherDisplay:10.37,2013-01-04 19:29:00,
2013-01-04 14:34:00,36.7,7.4,29.78,West,271,3.5,3.5,29,0.00,CLR,,0.00,WeatherDisplay:10.37,2013-01-04 19:34:00,
2013-01-04 14:39:00,36.7,7.4,29.78,NNE,21,3.5,3.5,29,0.00,CLR,,0.00,WeatherDisplay:10.37,2013-01-04 19:39:00,
2013-01-04 14:44:00,36.5,7.2,29.78,WSW,252,5.8,5.8,29,0.00,CLR,,0.00,WeatherDisplay:10.37,2013-01-04 19:44:00,
2013-01-04 14:49:00,36.5,7.2,29.78,West,265,6.3,6.3,29,0.00,CLR,,0.00,WeatherDisplay:10.37,2013-01-04 19:49:00,
2013-01-04 14:54:00,36.5,7.2,29.78,WNW,282,3.5,3.5,29,0.00,CLR,,0.00,WeatherDisplay:10.37,2013-01-04 19:54:00,
2013-01-04 14:59:00,36.5,7.2,29.78,West,266,3.5,3.6,29,0.00,CLR,,0.00,WeatherDisplay:10.37,2013-01-04 19:59:00,
2013-01-04 15:04:00,36.5,7.2,29.78,NW,308,3.5,0.0,29,0.00,CLR,,0.00,WeatherDisplay:10.37,2013-01-04 20:04:00,
2013-01-04 15:09:00,36.1,6.9,29.78,WSW,248,3.5,0.0,29,0.00,CLR,,0.00,WeatherDisplay:10.37,2013-01-04 20:09:00,
2013-01-04 15:14:00,36.0,6.7,29.78,ESE,117,4.0,4.0,29,0.00,CLR,,0.00,WeatherDisplay:10.37,2013-01-04 20:14:00,
2013-01-04 15:19:00,36.0,6.7,29.78,WSW,250,2.3,0.0,29,0.00,CLR,,0.00,WeatherDisplay:10.37,2013-01-04 20:19:00,
2013-01-04 15:24:00,36.0,6.7,29.78,West,271,2.3,0.0,29,0.00,CLR,,0.00,WeatherDisplay:10.37,2013-01-04 20:24:00,
2013-01-04 15:29:00,35.2,6.8,29.81,West,274,0.0,0.0,30,0.00,CLR,,0.00,WeatherDisplay:10.37,2013-01-04 20:29:00,
2013-01-04 15:34:00,35.1,6.7,29.81,West,274,0.0,0.0,30,0.00,CLR,,0.00,WeatherDisplay:10.37,2013-01-04 20:34:00,
2013-01-04 15:39:00,34.7,6.4,29.81,WSW,246,2.3,2.3,30,0.00,CLR,,0.00,WeatherDisplay:10.37,2013-01-04 20:39:00,
2013-01-04 15:44:00,34.5,6.2,29.81,WSW,246,0.0,0.0,30,0.00,CLR,,0.00,WeatherDisplay:10.37,2013-01-04 20:44:00,
2013-01-04 15:49:00,34.5,6.2,29.81,NW,307,0.0,0.0,30,0.00,CLR,,0.00,WeatherDisplay:10.37,2013-01-04 20:49:00,
2013-01-04 15:54:00,34.3,6.1,29.81,NW,307,0.0,0.0,30,0.00,CLR,,0.00,WeatherDisplay:10.37,2013-01-04 20:54:00,
2013-01-04 15:59:00,34.3,6.1,29.81,NW,308,0.0,0.0,30,0.00,CLR,,0.00,WeatherDisplay:10.37,2013-01-04 20:59:00,
2013-01-04 16:04:00,34.2,5.9,29.81,North,11,2.3,0.0,30,0.00,CLR,,0.00,WeatherDisplay:10.37,2013-01-04 21:04:00,
2013-01-04 16:09:00,34.0,5.7,29.81,North,11,0.0,0.0,30,0.00,CLR,,0.00,WeatherDisplay:10.37,2013-01-04 21:09:00,
2013-01-04 16:14:00,34.0,5.7,29.81,North,11,0.0,0.0,30,0.00,CLR,,0.00,WeatherDisplay:10.37,2013-01-04 21:14:00,
2013-01-04 16:19:00,34.0,5.7,29.81,North,11,0.0,0.0,30,0.00,CLR,,0.00,WeatherDisplay:10.37,2013-01-04 21:19:00,
2013-01-04 16:24:00,33.8,5.6,29.81,NE,51,2.3,0.0,30,0.00,CLR,,0.00,WeatherDisplay:10.37,2013-01-04 21:24:00,
2013-01-04 16:29:00,33.3,5.1,29.81,NE,51,0.0,0.0,30,0.00,CLR,,0.00,WeatherDisplay:10.37,2013-01-04 21:29:00,
2013-01-04 16:34:00,32.9,4.8,29.81,NE,51,0.0,0.0,30,0.00,CLR,,0.00,WeatherDisplay:10.37,2013-01-04 21:34:00,
2013-01-04 16:39:00,32.9,4.8,29.81,NE,51,0.0,0.0,30,0.00,CLR,,0.00,WeatherDisplay:10.37,2013-01-04 21:39:00,
2013-01-04 16:44:00,32.7,4.6,29.81,NE,51,0.0,0.0,30,0.00,CLR,,0.00,WeatherDisplay:10.37,2013-01-04 21:44:00,
2013-01-04 16:49:00,32.4,4.3,29.81,NE,51,0.0,0.0,30,0.00,CLR,,0.00,WeatherDisplay:10.37,2013-01-04 21:49:00,
2013-01-04 16:54:00,31.8,3.9,29.81,NE,51,0.0,0.0,30,0.00,CLR,,0.00,WeatherDisplay:10.37,2013-01-04 21:54:00,
2013-01-04 16:59:00,31.5,3.5,29.81,WNW,299,0.0,0.0,30,0.00,CLR,,0.00,WeatherDisplay:10.37,2013-01-04 21:59:00,
2013-01-04 17:04:00,31.5,3.5,29.81,WNW,299,0.0,0.0,30,0.00,CLR,,0.00,WeatherDisplay:10.37,2013-01-04 22:04:00,
2013-01-04 17:09:00,31.1,3.2,29.81,WSW,254,0.0,0.0,30,0.00,CLR,,0.00,WeatherDisplay:10.37,2013-01-04 22:09:00,
2013-01-04 17:14:00,31.1,3.2,29.81,WNW,298,0.0,0.0,30,0.00,CLR,,0.00,WeatherDisplay:10.37,2013-01-04 22:14:00,
2013-01-04 17:19:00,31.1,3.2,29.81,WNW,297,0.0,0.0,30,0.00,CLR,,0.00,WeatherDisplay:10.37,2013-01-04 22:19:00,
2013-01-04 17:24:00,31.5,3.5,29.81,WNW,297,0.0,0.0,30,0.00,CLR,,0.00,WeatherDisplay:10.37,2013-01-04 22:24:00,
2013-01-04 17:29:00,31.5,3.5,29.81,WNW,293,0.0,0.0,30,0.00,CLR,,0.00,WeatherDisplay:10.37,2013-01-04 22:29:00,
2013-01-04 17:34:00,31.5,3.5,29.81,NW,304,0.0,0.0,30,0.00,CLR,,0.00,WeatherDisplay:10.37,2013-01-04 22:34:00,
2013-01-04 17:39:00,32.4,4.3,29.81,NNW,328,3.5,0.0,30,0.00,CLR,,0.00,WeatherDisplay:10.37,2013-01-04 22:39:00,
2013-01-04 17:44:00,32.4,4.3,29.81,NNW,328,0.0,0.0,30,0.00,CLR,,0.00,WeatherDisplay:10.37,2013-01-04 22:44:00,
2013-01-04 17:49:00,32.5,4.5,29.81,NNW,328,0.0,0.0,30,0.00,CLR,,0.00,WeatherDisplay:10.37,2013-01-04 22:49:00,
2013-01-04 17:54:00,32.5,4.5,29.81,NNW,328,0.0,0.0,30,0.00,CLR,,0.00,WeatherDisplay:10.37,2013-01-04 22:54:00,
2013-01-04 17:59:00,32.5,4.5,29.81,NNW,328,0.0,0.0,30,0.00,CLR,,0.00,WeatherDisplay:10.37,2013-01-04 22:59:00,
2013-01-04 18:04:00,32.5,4.5,29.81,WNW,288,3.5,0.0,30,0.00,CLR,,0.00,WeatherDisplay:10.37,2013-01-04 23:04:00,
2013-01-04 18:09:00,32.5,4.5,29.81,WNW,288,0.0,0.0,30,0.00,CLR,,0.00,WeatherDisplay:10.37,2013-01-04 23:09:00,
2013-01-04 18:14:00,32.5,4.5,29.81,SW,234,3.5,3.5,30,0.00,CLR,,0.00,WeatherDisplay:10.37,2013-01-04 23:14:00,
2013-01-04 18:19:00,33.3,5.1,29.81,West,270,3.5,3.5,30,0.00,CLR,,0.00,WeatherDisplay:10.37,2013-01-04 23:19:00,
2013-01-04 18:24:00,33.3,5.1,29.81,West,273,0.0,0.0,30,0.00,CLR,,0.00,WeatherDisplay:10.37,2013-01-04 23:24:00,
2013-01-04 18:29:00,33.6,5.4,29.81,West,271,3.5,4.0,30,0.00,CLR,,0.00,WeatherDisplay:10.37,2013-01-04 23:29:00,
2013-01-04 18:34:00,33.6,5.4,29.81,NW,320,3.5,3.5,30,0.00,CLR,,0.00,WeatherDisplay:10.37,2013-01-04 23:34:00,
2013-01-04 18:39:00,34.5,6.2,29.81,West,263,2.3,2.3,30,0.00,CLR,,0.00,WeatherDisplay:10.37,2013-01-04 23:39:00,
2013-01-04 18:44:00,34.5,6.2,29.81,WNW,297,3.5,3.6,30,0.00,CLR,,0.00,WeatherDisplay:10.37,2013-01-04 23:44:00,
2013-01-04 18:49:00,34.5,6.2,29.81,WNW,302,4.6,4.6,30,0.00,CLR,,0.00,WeatherDisplay:10.37,2013-01-04 23:49:00,
2013-01-04 18:54:00,34.3,6.1,29.81,WNW,286,3.5,3.5,30,0.00,CLR,,0.00,WeatherDisplay:10.37,2013-01-04 23:54:00,
2013-01-04 18:59:00,34.0,5.7,29.81,WNW,290,3.5,0.0,30,0.00,CLR,,0.00,WeatherDisplay:10.37,2013-01-04 23:59:00,
2013-01-04 19:04:00,33.8,5.6,29.81,West,274,2.3,0.0,30,0.00,CLR,,0.00,WeatherDisplay:10.37,2013-01-05 00:04:00,
2013-01-04 19:09:00,34.0,5.7,29.81,West,264,2.7,0.0,30,0.00,CLR,,0.00,WeatherDisplay:10.37,2013-01-05 00:09:00,
2013-01-04 19:14:00,33.8,5.6,29.81,West,265,2.3,0.0,30,0.00,CLR,,0.00,WeatherDisplay:10.37,2013-01-05 00:14:00,
2013-01-04 19:19:00,33.8,5.6,29.81,NW,306,2.3,2.3,30,0.00,CLR,,0.00,WeatherDisplay:10.37,2013-01-05 00:19:00,
2013-01-04 19:24:00,33.3,5.1,29.81,WNW,291,6.9,0.0,30,0.00,CLR,,0.00,WeatherDisplay:10.37,2013-01-05 00:24:00,
2013-01-04 19:29:00,32.7,4.6,29.81,SW,231,0.0,0.0,30,0.00,CLR,,0.00,WeatherDisplay:10.37,2013-01-05 00:29:00,
2013-01-04 19:34:00,33.1,5.0,29.81,SW,231,0.0,0.0,30,0.00,CLR,,0.00,WeatherDisplay:10.37,2013-01-05 00:34:00,
2013-01-04 19:39:00,31.8,3.9,29.81,WSW,257,0.0,0.0,30,0.00,CLR,,0.00,WeatherDisplay:10.37,2013-01-05 00:39:00,
2013-01-04 19:44:00,31.1,3.2,29.81,East,98,0.0,0.0,30,0.00,CLR,,0.00,WeatherDisplay:10.37,2013-01-05 00:44:00,
2013-01-04 19:49:00,30.0,2.3,29.81,East,98,0.0,0.0,30,0.00,CLR,,0.00,WeatherDisplay:10.37,2013-01-05 00:49:00,
2013-01-04 19:54:00,29.3,1.6,29.81,East,98,0.0,0.0,30,0.00,CLR,,0.00,WeatherDisplay:10.37,2013-01-05 00:54:00,
2013-01-04 19:59:00,29.3,1.6,29.81,East,98,0.0,0.0,30,0.00,CLR,,0.00,WeatherDisplay:10.37,2013-01-05 00:59:00,
2013-01-04 20:04:00,28.9,1.3,29.81,East,98,0.0,0.0,30,0.00,CLR,,0.00,WeatherDisplay:10.37,2013-01-05 01:04:00,
2013-01-04 20:09:00,28.8,1.2,29.81,East,98,0.0,0.0,30,0.00,CLR,,0.00,WeatherDisplay:10.37,2013-01-05 01:09:00,
2013-01-04 20:14:00,28.8,3.2,29.81,East,96,0.0,0.0,33,0.00,CLR,,0.00,WeatherDisplay:10.37,2013-01-05 01:14:00,
2013-01-04 20:19:00,28.9,1.3,29.81,East,91,0.0,0.0,30,0.00,CLR,,0.00,WeatherDisplay:10.37,2013-01-05 01:19:00,
2013-01-04 20:24:00,29.1,1.5,29.81,WSW,244,0.0,0.0,30,0.00,CLR,,0.00,WeatherDisplay:10.37,2013-01-05 01:24:00,
2013-01-04 20:29:00,29.5,1.8,29.81,WSW,244,0.0,0.0,30,0.00,CLR,,0.00,WeatherDisplay:10.37,2013-01-05 01:29:00,
2013-01-04 20:34:00,29.7,2.0,29.81,WSW,244,0.0,0.0,30,0.00,CLR,,0.00,WeatherDisplay:10.37,2013-01-05 01:34:00,
2013-01-04 20:39:00,29.5,1.8,29.81,WSW,244,0.0,0.0,30,0.00,CLR,,0.00,WeatherDisplay:10.37,2013-01-05 01:39:00,
2013-01-04 20:44:00,29.5,1.8,29.81,WSW,244,0.0,0.0,30,0.00,CLR,,0.00,WeatherDisplay:10.37,2013-01-05 01:44:00,
2013-01-04 20:49:00,29.5,1.8,29.81,North,0,0.0,0.0,30,0.00,CLR,,0.00,WeatherDisplay:10.37,2013-01-05 01:49:00,
2013-01-04 20:54:00,29.7,2.0,29.81,North,0,0.0,0.0,30,0.00,CLR,,0.00,WeatherDisplay:10.37,2013-01-05 01:54:00,
2013-01-04 20:59:00,30.0,2.3,29.81,ESE,102,0.0,0.0,30,0.00,CLR,,0.00,WeatherDisplay:10.37,2013-01-05 01:59:00,
2013-01-04 21:04:00,30.4,2.6,29.81,North,9,2.3,0.0,30,0.00,CLR,,0.00,WeatherDisplay:10.37,2013-01-05 02:04:00,
2013-01-04 21:09:00,30.4,2.6,29.81,West,265,2.3,0.0,30,0.00,CLR,,0.00,WeatherDisplay:10.37,2013-01-05 02:09:00,
2013-01-04 21:14:00,30.6,2.7,29.81,ENE,76,0.0,0.0,30,0.00,CLR,,0.00,WeatherDisplay:10.37,2013-01-05 02:14:00,
2013-01-04 21:19:00,30.6,2.7,29.81,ENE,76,0.0,0.0,30,0.00,CLR,,0.00,WeatherDisplay:10.37,2013-01-05 02:19:00,
2013-01-04 21:24:00,30.9,3.1,29.81,NNW,339,3.5,0.0,30,0.00,CLR,,0.00,WeatherDisplay:10.37,2013-01-05 02:24:00,
2013-01-04 21:29:00,31.1,3.2,29.81,NNW,339,0.0,0.0,30,0.00,CLR,,0.00,WeatherDisplay:10.37,2013-01-05 02:29:00,
2013-01-04 21:34:00,31.5,3.5,29.81,ESE,112,3.5,0.0,30,0.00,CLR,,0.00,WeatherDisplay:10.37,2013-01-05 02:34:00,
2013-01-04 21:39:00,31.6,3.7,29.81,WNW,293,3.5,0.0,30,0.00,CLR,,0.00,WeatherDisplay:10.37,2013-01-05 02:39:00,
2013-01-04 21:44:00,31.6,3.7,29.81,WNW,293,0.0,0.0,30,0.00,CLR,,0.00,WeatherDisplay:10.37,2013-01-05 02:44:00,
2013-01-04 21:49:00,31.6,3.7,29.81,WNW,293,0.0,0.0,30,0.00,CLR,,0.00,WeatherDisplay:10.37,2013-01-05 02:49:00,
2013-01-04 21:54:00,31.5,3.5,29.81,WNW,293,0.0,0.0,30,0.00,CLR,,0.00,WeatherDisplay:10.37,2013-01-05 02:54:00,
2013-01-04 21:59:00,31.5,3.5,29.81,WNW,293,0.0,0.0,30,0.00,CLR,,0.00,WeatherDisplay:10.37,2013-01-05 02:59:00,
2013-01-04 22:04:00,31.6,3.7,29.81,WSW,252,2.3,0.0,30,0.00,CLR,,0.00,WeatherDisplay:10.37,2013-01-05 03:04:00,
2013-01-04 22:09:00,31.6,3.7,29.81,WNW,295,3.5,3.5,30,0.00,CLR,,0.00,WeatherDisplay:10.37,2013-01-05 03:09:00,
2013-01-04 22:14:00,32.7,4.6,29.81,WNW,294,3.5,3.5,30,0.00,CLR,,0.00,WeatherDisplay:10.37,2013-01-05 03:14:00,
2013-01-04 22:19:00,32.7,4.6,29.81,WNW,299,5.8,5.8,30,0.00,CLR,,0.00,WeatherDisplay:10.37,2013-01-05 03:19:00,
2013-01-04 22:24:00,33.3,5.1,29.81,WNW,283,3.5,0.0,30,0.00,CLR,,0.00,WeatherDisplay:10.37,2013-01-05 03:24:00,
2013-01-04 22:29:00,33.6,5.4,29.81,NW,308,3.5,3.5,30,0.00,CLR,,0.00,WeatherDisplay:10.37,2013-01-05 03:29:00,
2013-01-04 22:34:00,34.0,7.2,29.81,WNW,297,3.5,3.6,32,0.00,CLR,,0.00,WeatherDisplay:10.37,2013-01-05 03:34:00,
2013-01-04 22:39:00,34.3,7.5,29.81,West,259,4.6,4.6,32,0.00,CLR,,0.00,WeatherDisplay:10.37,2013-01-05 03:39:00,
2013-01-04 22:44:00,34.0,5.7,29.81,WNW,283,5.8,5.8,30,0.00,CLR,,0.00,WeatherDisplay:10.37,2013-01-05 03:44:00,
2013-01-04 22:49:00,34.0,5.7,29.81,West,278,4.6,4.6,30,0.00,CLR,,0.00,WeatherDisplay:10.37,2013-01-05 03:49:00,
2013-01-04 22:54:00,33.8,5.6,29.81,West,264,3.5,3.5,30,0.00,CLR,,0.00,WeatherDisplay:10.37,2013-01-05 03:54:00,
2013-01-04 22:59:00,33.8,5.6,29.81,West,278,5.8,5.8,30,0.00,CLR,,0.00,WeatherDisplay:10.37,2013-01-05 03:59:00,
2013-01-04 23:04:00,33.6,5.4,29.81,NW,311,3.5,0.0,30,0.00,CLR,,0.00,WeatherDisplay:10.37,2013-01-05 04:04:00,
2013-01-04 23:09:00,33.4,5.3,29.81,WNW,283,3.5,0.0,30,0.00,CLR,,0.00,WeatherDisplay:10.37,2013-01-05 04:09:00,
2013-01-04 23:14:00,33.3,5.1,29.81,WSW,253,4.6,4.6,30,0.00,CLR,,0.00,WeatherDisplay:10.37,2013-01-05 04:14:00,
2013-01-04 23:19:00,33.4,5.3,29.81,West,261,2.3,2.3,30,0.00,CLR,,0.00,WeatherDisplay:10.37,2013-01-05 04:19:00,
2013-01-04 23:24:00,33.4,5.3,29.81,West,268,3.5,3.5,30,0.00,CLR,,0.00,WeatherDisplay:10.37,2013-01-05 04:24:00,
2013-01-04 23:29:00,33.6,5.4,29.81,West,263,3.5,3.5,30,0.00,CLR,,0.00,WeatherDisplay:10.37,2013-01-05 04:29:00,
2013-01-04 23:34:00,33.6,5.4,29.81,WNW,303,0.0,2.2,30,0.00,CLR,,0.00,WeatherDisplay:10.37,2013-01-05 04:34:00,
2013-01-04 23:39:00,33.6,5.4,29.81,West,276,0.0,0.0,30,0.00,CLR,,0.00,WeatherDisplay:10.37,2013-01-05 04:39:00,
2013-01-04 23:44:00,33.3,5.1,29.81,NNW,339,3.5,0.0,30,0.00,CLR,,0.00,WeatherDisplay:10.37,2013-01-05 04:44:00,
2013-01-04 23:49:00,33.3,5.1,29.81,WSW,250,3.5,3.5,30,0.00,CLR,,0.00,WeatherDisplay:10.37,2013-01-05 04:49:00,
2013-01-04 23:54:00,33.3,5.1,29.81,NNW,337,3.5,3.5,30,0.00,CLR,,0.00,WeatherDisplay:10.37,2013-01-05 04:54:00,
2013-01-04 23:59:00,33.3,5.1,29.81,SW,226,2.7,2.7,30,0.00,CLR,,0.00,WeatherDisplay:10.37,2013-01-05 04:59:00,